Wichita Jabara, KS

10:56 PM CDT on May 22, 2017 (GMT -0500)
Col Jabara

Weather History for KAAO - January, 2012

Change the Weather History Date:

Saturday, January 21, 2012

  Actual Average (KIAB) Record (KIAB)
Temperature  
Mean Temperature 22 °F -  
Max Temperature 35 °F 42 °F 66 °F (1997)
Min Temperature 10 °F 23 °F 9 °F (2014)
Degree Days  
Heating Degree Days 42    
Moisture  
Dew Point 12 °F    
Average Humidity 65    
Maximum Humidity 84    
Minimum Humidity 46    
Precipitation  
Precipitation 0.00 in - - ()
Sea Level Pressure  
Sea Level Pressure 30.06 in    
Wind  
Wind Speed 10 mph (East)    
Max Wind Speed 20 mph    
Max Gust Speed 26 mph    
Visibility 10 miles    
Events      
Averages and records for this station are not official NWS values.
T = Trace of Precipitation, MM = Missing Value Source: NWS Daily Summary

Daily Weather History Graph

Daily Weather History Graph

Search for Another Location

Airport or City:

Trip Planner

Search our weather history database for the weather conditions in past years. The results will help you decide how hot, cold, wet, or windy it might be!

Date:

Astronomy

Jan. 21, 2012 Rise Set
Actual Time 7:40 AM CST 5:39 PM CST
Civil Twilight 7:12 AM CST 6:08 PM CST
Nautical Twilight 6:40 AM CST 6:40 PM CST
Astronomical Twilight 6:09 AM CST 7:11 PM CST
Moon 6:11 AM CST (1/21) 4:17 PM CST (1/21)
Length of Visible Light 10h 55m
Length of Day
9h 59m
Waning Crescent, 3% of the Moon is Illuminated
Jan 21
Waning Crescent
Jan 23
New
Jan 30
First Quarter
Feb 7
Full
Feb 14
Last Quarter

Hourly Weather History & Observations

Time (CST) Temp. Windchill Dew Point Humidity Pressure Visibility Wind Dir Wind Speed Gust Speed Precip Events Conditions
12:54 AM 17.1 °F 3.6 °F 8.1 °F 68% 30.24 in 10.0 mi North 12.7 mph - N/A   Clear
1:54 AM 16.0 °F 4.4 °F 7.0 °F 68% 30.20 in 10.0 mi North 9.2 mph - N/A   Clear
2:54 AM 15.1 °F 3.3 °F 7.0 °F 70% 30.22 in 10.0 mi North 9.2 mph - N/A   Clear
3:54 AM 14.0 °F 1.2 °F 7.0 °F 74% 30.19 in 10.0 mi NNE 10.4 mph 19.6 mph N/A   Clear
4:54 AM 12.9 °F 1.6 °F 7.0 °F 77% 30.19 in 10.0 mi North 8.1 mph - N/A   Clear
5:54 AM 12.0 °F 2.7 °F 7.0 °F 80% 30.20 in 10.0 mi North 5.8 mph - N/A   Clear
6:54 AM 10.9 °F 1.4 °F 7.0 °F 84% 30.20 in 10.0 mi NNW 5.8 mph - N/A   Clear
7:54 AM 10.0 °F -0.9 °F 6.1 °F 84% 30.20 in 10.0 mi North 6.9 mph - N/A   Clear
8:54 AM 14.0 °F 2.0 °F 7.0 °F 74% 30.20 in 10.0 mi NNE 9.2 mph - N/A   Clear
9:54 AM 17.1 °F 7.6 °F 8.1 °F 68% 30.19 in 10.0 mi East 6.9 mph - N/A   Clear
10:54 AM 19.9 °F 13.4 °F 10.0 °F 65% 30.19 in 10.0 mi South 4.6 mph - N/A   Clear
11:54 AM 25.0 °F 17.1 °F 12.0 °F 58% 30.13 in 10.0 mi ESE 6.9 mph - N/A   Clear
12:54 PM 28.9 °F 21.9 °F 14.0 °F 54% 30.09 in 10.0 mi SSE 6.9 mph - N/A   Clear
1:54 PM 32.0 °F 23.0 °F 15.1 °F 50% 30.04 in 10.0 mi SSE 11.5 mph 16.1 mph N/A   Clear
2:54 PM 34.0 °F 25.0 °F 15.1 °F 46% 29.97 in 10.0 mi SSE 12.7 mph - N/A   Clear
3:54 PM 35.1 °F 25.5 °F 16.0 °F 46% 29.93 in 10.0 mi SSE 15.0 mph - N/A   Clear
4:54 PM 35.1 °F 25.5 °F 16.0 °F 46% 29.91 in 10.0 mi SE 15.0 mph 19.6 mph N/A   Clear
5:54 PM 32.0 °F 21.6 °F 16.0 °F 52% 29.87 in 10.0 mi SSE 15.0 mph - N/A   Clear
6:54 PM 30.9 °F 18.7 °F 18.0 °F 59% 29.84 in 10.0 mi SE 19.6 mph 26.5 mph N/A   Clear
7:54 PM 28.9 °F 17.7 °F 18.0 °F 64% 29.81 in 10.0 mi SE 15.0 mph 25.3 mph N/A   Clear
9:54 PM 28.9 °F 17.3 °F 19.0 °F 67% 29.75 in 10.0 mi SSE 16.1 mph - N/A   Clear
10:54 PM 28.9 °F 18.2 °F 19.9 °F 69% 29.71 in 10.0 mi SSE 13.8 mph - N/A   Clear